Mount Holly, NJ

7:23 AM EDT on October 14, 2019 (GMT -0400)
South Jersey Regional

Weather History for KVAY - August, 2019

Change the Weather History Date:

Saturday, August 10, 2019

  Actual Average (WUND) Record (WUND)
Temperature  
Mean Temperature 71 °F -  
Max Temperature 84 °F - - (-1)
Min Temperature 60 °F - - (-1)
Cooling Degree Days 6    
Growing Degree Days 21 (Base 50)    
Moisture  
Dew Point 56 °F    
Average Humidity 63    
Maximum Humidity 93    
Minimum Humidity 36    
Precipitation  
Precipitation 0.00 in - - ()
Sea Level Pressure  
Sea Level Pressure 29.86 in    
Wind  
Wind Speed 3 mph (WNW)    
Max Wind Speed 15 mph    
Max Gust Speed 23 mph    
Visibility 10 miles    
Events      
Averages and records for this station are not official NWS values.
T = Trace of Precipitation, MM = Missing Value Source: NWS Daily Summary

Daily Weather History Graph

Daily Weather History Graph

Search for Another Location

Airport or City:

Astronomy

Aug. 10, 2019 Rise Set
Actual Time 6:06 AM EDT 8:02 PM EDT
Civil Twilight 5:36 AM EDT 8:32 PM EDT
Nautical Twilight 5:00 AM EDT 9:07 PM EDT
Astronomical Twilight 4:21 AM EDT 9:46 PM EDT
Moon 4:42 PM EDT (8/10) 1:41 AM EDT (8/10)
Length of Visible Light 14h 55m
Length of Day
13h 56m
Waxing Gibbous, 79% of the Moon is Illuminated
Aug 10
Waxing Gibbous
Aug 15
Full
Aug 23
Last Quarter
Aug 30
New
Sep 5
First Quarter

Hourly Weather History & Observations

Time (EDT) Temp. Heat Index Dew Point Humidity Pressure Visibility Wind Dir Wind Speed Gust Speed Precip Events Conditions
12:54 AM 64.0 °F - 62.1 °F 93% 29.83 in 10.0 mi Calm Calm - N/A   Clear
1:54 AM 63.0 °F - 61.0 °F 93% 29.83 in 10.0 mi Calm Calm - N/A   Clear
2:54 AM 63.0 °F - 60.1 °F 90% 29.84 in 10.0 mi Calm Calm - N/A   Clear
3:54 AM 62.1 °F - 57.9 °F 86% 29.84 in 10.0 mi Calm Calm - N/A   Clear
4:54 AM 61.0 °F - 57.9 °F 90% 29.85 in 10.0 mi Calm Calm - N/A   Unknown
5:54 AM 60.1 °F - 57.9 °F 93% 29.86 in 10.0 mi Calm Calm - N/A   Unknown
6:54 AM 62.1 °F - 57.9 °F 86% 29.87 in 10.0 mi Calm Calm - N/A   Clear
7:54 AM 69.1 °F - 57.9 °F 68% 29.87 in 10.0 mi West 4.6 mph - N/A   Clear
8:54 AM 73.0 °F - 57.0 °F 57% 29.88 in 10.0 mi Calm Calm - N/A   Clear
9:54 AM 75.0 °F - 57.0 °F 53% 29.88 in 10.0 mi Variable 3.5 mph - N/A   Clear
10:54 AM 77.0 °F - 57.0 °F 50% 29.88 in 10.0 mi WSW 5.8 mph - N/A   Clear
11:54 AM 80.1 °F 80.6 °F 57.9 °F 47% 29.87 in 10.0 mi WSW 6.9 mph - N/A   Clear
12:54 PM 81.0 °F 80.5 °F 54.0 °F 39% 29.86 in 10.0 mi West 10.4 mph - N/A   Clear
1:54 PM 82.9 °F 82.0 °F 55.0 °F 38% 29.84 in 10.0 mi West 15.0 mph 20.7 mph N/A   Clear
2:54 PM 82.9 °F 81.8 °F 53.1 °F 36% 29.83 in 10.0 mi WNW 10.4 mph 20.7 mph N/A   Clear
3:54 PM 82.9 °F 81.8 °F 53.1 °F 36% 29.82 in 10.0 mi WNW 11.5 mph 23.0 mph N/A   Clear
4:54 PM 82.9 °F 81.8 °F 53.1 °F 36% 29.82 in 10.0 mi WNW 10.4 mph - N/A   Partly Cloudy
5:54 PM 82.0 °F 81.3 °F 54.0 °F 38% 29.83 in 10.0 mi NW 5.8 mph 16.1 mph N/A   Clear
6:54 PM 80.1 °F 79.9 °F 53.1 °F 39% 29.85 in 10.0 mi NW 10.4 mph - N/A   Clear
7:54 PM 77.0 °F - 51.1 °F 40% 29.87 in 10.0 mi NW 4.6 mph - N/A   Clear
8:54 PM 68.0 °F - 55.9 °F 65% 29.89 in 10.0 mi Calm Calm - N/A   Clear
9:54 PM 64.9 °F - 57.0 °F 75% 29.92 in 10.0 mi Calm Calm - N/A   Clear
10:54 PM 63.0 °F - 57.0 °F 81% 29.94 in 10.0 mi Calm Calm - N/A   Clear
11:54 PM 63.0 °F - 57.9 °F 84% 29.95 in 10.0 mi Calm Calm - N/A   Clear